This is the latest recevied weather packets stored in our database for station/object VK4HIT-13. If no packets are shown the sender has not sent any weather packets the latest 10 day(s).
| Time | Temp. | Humidity | Pressure | Rain* | Wind** | Luminosity | Snow |
|---|---|---|---|---|---|---|---|
| 1778118567 | 23.33° C | 52% | 1015.7 hPa | 0 mm | - | - | - |
| 1778118267 | 23.89° C | 50% | 1015.8 hPa | 0 mm | - | - | - |
| 1778117967 | 23.89° C | 51% | 1015.9 hPa | 0 mm | - | - | - |
| 1778117667 | 23.89° C | 50% | 1016 hPa | 0 mm | - | - | - |
| 1778117367 | 23.89° C | 50% | 1016 hPa | 0 mm | - | - | - |
| 1778117067 | 23.89° C | 51% | 1016.2 hPa | 0 mm | - | - | - |
| 1778116767 | 23.33° C | 51% | 1016.2 hPa | 0 mm | - | - | - |
| 1778116467 | 23.89° C | 50% | 1016.1 hPa | 0 mm | - | - | - |
| 1778116167 | 23.89° C | 51% | 1016.3 hPa | 0 mm | - | - | - |
| 1778115867 | 23.89° C | 53% | 1016.4 hPa | 0 mm | - | - | - |
| 1778115567 | 23.89° C | 54% | 1016.4 hPa | 0 mm | - | - | - |
| 1778115267 | 23.89° C | 54% | 1016.4 hPa | 0 mm | - | - | - |
| 1778114967 | 23.33° C | 57% | 1016.4 hPa | 0 mm | - | - | - |
| 1778114667 | 22.78° C | 57% | 1016.5 hPa | 0 mm | - | - | - |
| 1778114367 | 22.78° C | 58% | 1016.5 hPa | 0 mm | - | - | - |
| 1778114067 | 22.78° C | 60% | 1016.6 hPa | 0 mm | - | - | - |
| 1778113767 | 22.22° C | 62% | 1016.6 hPa | 0 mm | - | - | - |
| 1778113467 | 22.22° C | 62% | 1016.6 hPa | 0 mm | - | - | - |
| 1778113167 | 22.22° C | 64% | 1016.7 hPa | 0 mm | - | - | - |
| 1778112867 | 22.22° C | 65% | 1016.7 hPa | 0 mm | - | - | - |
| 1778112567 | 22.78° C | 66% | 1017 hPa | 0 mm | - | - | - |
| 1778112267 | 22.22° C | 66% | 1017 hPa | 0 mm | - | - | - |
| 1778111967 | 22.22° C | 68% | 1017 hPa | 0 mm | - | - | - |
| 1778111667 | 21.67° C | 68% | 1017.1 hPa | 0 mm | - | - | - |
| 1778111367 | 21.67° C | 70% | 1017.1 hPa | 0 mm | - | - | - |
* Rain latest hour (hover to see other rain measurements)
** Current wind speed in m/s (hover to see current wind gust speed)